Tracking 35331 objects as of 15-Sep-2026
HD Live streaming from Space Station
objects crossing your sky now

HULIANWANG DIGUI-108

Track HULIANWANG DIGUI-108 now!
10-day predictions


NORAD ID: 66918
Int'l Code: 2025-286D
Launch date: December 6, 2025
Source: People's Republic of China (PRC)
Launch site: Wenchang Satellite Launch Center (WSC)
Your satellite tracking list
Your tracking list is empty




NASA's NSSDC Master Catalog

Two Line Element Set (TLE):
1 66918U 25285D   26257.16331787 -.00000086  00000-0  81598-4 0  9990
2 66918  50.0043 186.8865 0000209 250.9803 109.1047 13.29328737 37898
Source of the keplerian elements: AFSPC